Location: Pebble Beach Sunset Acres
(33.0837°N, 96.4508°W)
Time: 16:37:22
(UTC+00:00)

Okean 1 - Pass Details

Date: 09 July 2022
Orbit: 532 x 552 km, 82.5° (Epoch: 17 August)

Event Time Altitude Azimuth Distance (km) Brightness Sun altitude
Rises 08:18:31 0° 9° (N) 2,681 7.9 -28.9°
Reaches altitude 10° 08:21:01 10° 24° (NNE) 1,786 6.9 -28.7°
Maximum altitude 08:24:10 23° 78° (ENE) 1,166 5.3 -28.4°
Enters shadow 08:24:16 23° 80° (E) 1,166 5.3 -28.4°
